Location: Spring Creek
(38.2870°N, 100.2160°W)
Time: 17:27:24
(UTC+00:00)

Meteor 2-15 - Pass Details

Date: 29 September 2021
Orbit: 937 x 954 km, 82.5° (Epoch: 19 October)

Event Time Altitude Azimuth Distance (km) Brightness Sun altitude
Exits shadow 08:40:32 20° 29° (NNE) 2,024 6.6 -43.6°
Drops below altitude 10° 08:42:27 10° 21° (NNE) 2,674 7.3 -43.4°
Sets 08:45:02 0° 15° (NNE) 3,626 8.1 -43.0°
